Regional Weather Roundup
Issued by NWS

Home | Current Version | Previous Version | Graphics & Text | Print | Product List | Glossary Off
Versions: 1 2 3 4 5 6 7 8 9 10 11 12 13 14 15 16 17 18 19 20 21 22 23 24 25 26 27 28 29 30 31 32 33 34 35 36 37 38 39 40 41 42 43 44 45 46 47 48 49 50

000
ASUS45 KSLC 021210
RWRUT

UTAH REGIONAL WEATHER ROUNDUP
NATIONAL WEATHER SERVICE SALT LAKE CITY UT
500 AM MST MON MAR 02 2015

UTZ001>011-023>025-021300-

NORTHERN UTAH

CITY           SKY/WX    TMP DP  RH WIND       PRES   REMARKS
BRIGHAM CITY   CLOUDY    33  24  68 NW5       29.85F WCI  29
HILL AFB       CLOUDY    35  27  72 E12       29.82F WCI  27
LOGAN          CLOUDY    30  22  72 N3        29.85F
OGDEN          CLOUDY    37  28  70 S5        29.82F WCI  33
PROVO AIRPORT  CLOUDY    37  34  87 W3        29.83S
SALT LAKE CITY CLOUDY    36  31  82 CALM      29.82F
VERNAL         LGT SNOW  32  31  96 N3        29.89F VSB 3/4
WENDOVER       PTCLDY    30  18  59 SE6       29.82F WCI  24
HEBER CITY     LGT SNOW  32  30  93 CALM      29.83F
WEST JORDAN    CLOUDY    36  32  87 CALM      29.84F

$$

UTZ012>022-026-027-021300-

SOUTHERN/CENTRAL UTAH

CITY           SKY/WX    TMP DP  RH WIND       PRES   REMARKS
BLANDING       CLOUDY    36  36 100 E6        29.98F WCI  31
BRYCE CANYON   SNOW      28  27  96 S5        29.82F VSB 1/2 WCI  23
CEDAR CITY     LGT SNOW  32  31  96 CALM      29.77F VSB 1
DELTA          CLOUDY    34  33  98 CALM      29.80F
HANKSVILLE     CLOUDY    32  32 100 CALM      29.90F
MILFORD        LGT SNOW  33  32  96 CALM      29.79R VSB 1
MOAB/CYNLANDS  LGT RAIN  37  37 100 E3        29.85F
PRICE          LGT SNOW  32  29  88 CALM      29.85F FOG
ST GEORGE      CLOUDY    39  36  87 SW3       29.85S
KANAB            N/A    N/A N/A N/A NW12      29.84F

$$

REGIONAL REPORTS     COLORADO/ARIZONA

CITY           SKY/WX    TMP DP  RH WIND       PRES   REMARKS
CRAIG, CO      FLURRIES  31  29  92 NE8       29.90F WCI  23
GRAND JUNCTION CLOUDY    35  35 100 CALM      29.88F
RIFLE          LGT RAIN  33  31  92 CALM      29.91F FOG
MONTROSE       LGT RAIN  43  35  73 SW14G23   29.92F
CORTEZ         CLOUDY    39  36  89 NE3       29.96F
PAGE, AZ       CLOUDY    37  34  89 CALM      29.84F
GRAND CANYON   FLURRIES  37  34  89 S10       29.85F WCI  30
KINGMAN        LGT RAIN  42  38  85 SW10      29.85S
FLAGSTAFF      LGT RAIN  37  35  92 SW14G29   29.89F WCI  28

$$

REGIONAL REPORTS    NEVADA/IDAHO/WYOMING

CITY           SKY/WX    TMP DP  RH WIND       PRES   REMARKS
LAS VEGAS, NV  LGT RAIN  46  41  82 S6        29.79S
ELY            LGT SNOW  27  25  92 CALM      29.80S FOG
ELKO           CLEAR     22  17  81 E3        29.80F
POCATELLO, ID  CLEAR     17  12  80 E3        29.88F
BURLEY         CLEAR     19  12  74 CALM      29.85F
EVANSTON, WY   MOCLDY    23  19  85 E8        29.84F WCI  14
ROCK SPRINGS   CLOUDY    21  16  81 NE3       29.88F
KEMMERER       CLOUDY    19  18  93 N8        29.86  WCI   9

$$


USA.gov is the U.S. government's official web portal to all federal, state and local government web resources and services.